Location: Arlington
(40.6323°N, 74.1651°W)
Time: 23:45:09
(UTC+00:00)

ATLAS 5 CENTAUR R/B - Pass Details

Date: 22 November 2019
Orbit: 284 x 14347 km, 60.8° (Epoch: 14 December)

Event Time Altitude Azimuth Distance (km) Brightness Sun altitude
Rises 22:59:22 0° 189° (S) 3,535 6.2 -16.0°
Reaches altitude 10° 23:03:34 10° 162° (SSE) 1,640 4.2 -16.8°
Enters shadow 23:04:20 12° 149° (SSE) 1,386 3.7 -17.0°
